Time,TemperatureF,DewpointF,PressureIn,WindDirection,WindDirectionDegrees,WindSpeedMPH,WindSpeedGustMPH,Humidity,HourlyPrecipIn,Conditions,Clouds,dailyrainin,SoftwareType,DateUTC
2013-08-18 00:00:00,64.8,40.5,24.18,North,0,0.0,-999.0,41,0.00,,,0.00,,2013-08-18 07:00:00,
2013-08-18 01:00:00,64.1,42.8,24.18,North,0,0.0,-999.0,46,0.00,,,0.00,,2013-08-18 08:00:00,
2013-08-18 02:00:00,64.4,43.0,24.17,North,0,0.0,-999.0,46,0.00,,,0.00,,2013-08-18 09:00:00,
2013-08-18 03:00:00,64.3,44.0,24.16,North,0,0.0,-999.0,48,0.00,,,0.00,,2013-08-18 10:00:00,
2013-08-18 04:00:00,63.7,44.7,24.16,North,0,0.0,-999.0,50,0.00,,,0.00,,2013-08-18 11:00:00,
2013-08-18 05:00:00,61.0,42.8,24.16,North,0,0.0,-999.0,51,0.00,,,0.00,,2013-08-18 12:00:00,
2013-08-18 06:00:00,60.3,41.7,24.17,North,0,0.0,-999.0,50,0.00,,,0.00,,2013-08-18 13:00:00,
2013-08-18 07:05:00,60.8,41.0,24.17,North,0,0.0,-999.0,48,0.00,,,0.00,,2013-08-18 14:05:00,
2013-08-18 08:05:00,63.7,41.2,24.19,North,0,0.0,-999.0,44,0.00,,,0.00,,2013-08-18 15:05:00,
2013-08-18 09:05:00,70.7,43.0,0.00,North,0,0.0,-999.0,37,0.00,,,0.00,,2013-08-18 16:05:00,
2013-08-18 10:05:00,77.2,36.2,0.00,North,0,0.0,-999.0,23,0.00,,,0.00,,2013-08-18 17:05:00,
2013-08-18 11:05:00,79.7,38.4,0.00,North,0,0.0,-999.0,23,0.00,,,0.00,,2013-08-18 18:05:00,
2013-08-18 13:05:00,85.1,40.7,0.00,North,0,0.0,-999.0,21,0.00,,,0.00,,2013-08-18 20:05:00,
2013-08-18 14:05:00,89.3,41.3,0.00,North,0,0.0,-999.0,19,0.00,,,0.00,,2013-08-18 21:05:00,
2013-08-18 15:05:00,87.7,42.8,0.00,North,0,0.0,-999.0,21,0.00,,,0.00,,2013-08-18 22:05:00,
2013-08-18 16:05:00,85.5,48.5,0.00,North,0,0.0,-999.0,28,0.00,,,0.00,,2013-08-18 23:05:00,
2013-08-18 17:05:00,84.2,47.3,0.00,North,0,0.0,-999.0,28,0.00,,,0.00,,2013-08-19 00:05:00,
2013-08-18 18:00:00,81.4,49.3,24.17,North,0,0.0,-999.0,33,0.00,,,0.00,,2013-08-19 01:00:00,
2013-08-18 19:00:00,74.3,47.0,24.18,North,0,0.0,-999.0,38,0.00,,,0.00,,2013-08-19 02:00:00,
2013-08-18 20:00:00,71.6,43.8,24.19,North,0,0.0,-999.0,37,0.00,,,0.00,,2013-08-19 03:00:00,
2013-08-18 21:00:00,69.8,44.5,24.19,North,0,0.0,-999.0,40,0.00,,,0.00,,2013-08-19 04:00:00,
2013-08-18 22:00:00,63.0,52.7,24.21,North,0,0.0,-999.0,69,0.02,,,0.02,,2013-08-19 05:00:00,
2013-08-18 23:00:00,63.7,47.6,24.22,North,0,0.0,-999.0,56,0.00,,,0.02,,2013-08-19 06:00:00,